This demonstration page uses our WeatherBlox Daily Observations layout. Learn more.

Left ArrowRight Arrow

38.88101, -77.10428

Hourly Observations for August 17, 2020

Temp ( °F °C ) Dew Point ( °F °C ) Humidity (%) Winds ( mph kmh ) Pressure ( in mb ) Visibility ( mi km ) Precip ( " mm )
12:52 am 00:52 Clear 69 20.6 65 18.3 87 87 Calm 29.97 1015 10 16.0934 0 0
1:52 am 01:52 Mostly Clear 68 20 64 17.8 87 87 NNW 5 7 29.97 1015 10 16.0934 0 0
2:52 am 02:52 Mostly Clear 68 20 65 18.3 90 90 Calm 29.96 1015 10 16.0934 0 0
3:52 am 03:52 Mostly Clear 66 18.9 64 17.8 93 93 W 5 7 29.96 1015 10 16.0934 0 0
4:52 am 04:52 Mostly Clear 66 18.9 64 17.8 93 93 Calm 29.96 1015 10 16.0934 0 0
5:52 am 05:52 Mostly Clear 67 19.4 64 17.8 91 91 Calm 29.96 1014 10 16.0934 0 0
6:48 am 06:48 Partly Cloudy 66 19 64 18 94 94 W 3 6 29.98 1015 10 16.0934 0 0
6:52 am 06:52 Partly Cloudy 66 18.9 64 17.8 93 93 WSW 3 6 29.97 1015 10 16.0934 0 0
7:52 am 07:52 Partly Cloudy 72 22.2 66 18.9 82 82 Calm 29.98 1015 9 14.48406 0 0
8:52 am 08:52 Partly Cloudy 72 22.2 66 18.9 82 82 SSW 5 7 29.98 1015 10 16.0934 0 0
9:52 am 09:52 Mostly Sunny 75 23.9 68 20 79 79 S 8 13 29.97 1015 10 16.0934 0 0
10:52 am 10:52 Mostly Sunny 77 25 68 20 74 74 SSE 7 11 29.96 1014 10 16.0934 0 0
11:52 am 11:52 Partly Cloudy 79 26.1 69 20.6 72 72 S 10 17 29.95 1014 10 16.0934 0 0
12:52 pm 12:52 Partly Cloudy 80 26.7 68 20 67 67 SSE 9 15 29.93 1014 10 16.0934 0 0
1:52 pm 13:52 Mostly Cloudy 81 27.2 69 20.6 67 67 S 13 20 29.93 1013 10 16.0934 0 0
2:52 pm 14:52 Partly Cloudy 80 26.7 68 20 67 67 SSE 12 19 29.91 1013 10 16.0934 0 0
3:52 pm 15:52 Mostly Cloudy 82 27.8 68 20 63 63 S 10 17 29.88 1012 10 16.0934 0 0
4:52 pm 16:52 Mostly Cloudy 81 27.2 68 20 65 65 S 10 17 29.87 1011 10 16.0934 0.001 0.001
5:52 pm 17:52 Mostly Cloudy 81 27.2 70 21.1 69 69 S 8 13 29.86 1011 10 16.0934 0 0
6:41 pm 18:41 Mostly Cloudy with Nearby Thunderstorms 79 26.1 69 20.6 72 72 SSW 9 15 29.88 1012 10 16.0934 0 0
6:52 pm 18:52 Mostly Cloudy with Light Thunderstorms 79 26.1 68 20 69 69 SW 5 7 29.89 1012 10 16.0934 0.001 0.001
7:10 pm 19:10 Cloudy with Rain 75 23.9 67 19.4 76 76 S 14 22 29.87 1011 7 11.26538 0.1 2.54
7:52 pm 19:52 Mostly Cloudy 75 23.9 69 20.6 82 82 SW 7 11 29.89 1012 10 16.0934 0.14 3.556
8:52 pm 20:52 Mostly Clear 73 22.8 67 19.4 81 81 SW 7 11 29.9 1012 10 16.0934 0 0
9:52 pm 21:52 Mostly Clear 71 21.7 67 19.4 87 87 SW 6 9 29.91 1013 10 16.0934 0 0
10:52 pm 22:52 Mostly Clear 71 21.7 66 18.9 84 84 SW 7 11 29.91 1013 10 16.0934 0 0
11:52 pm 23:52 Mostly Clear 71 21.7 68 20 90 90 SSW 7 11 29.91 1013 10 16.0934 0 0

Powered by AerisWeather